Wind_Speed
9 9 10 10 10 11 11 11 12 12 13 14 14 14 14 15 16 16 16 16 17 18 17 17 17 18 19 19 20 20 20 20 19 18 17 17 17 17 17 17 17 18 18 18
8 9 10 11 11 11 11 11 11 12 13 14 15 15 14 15 15 15 15 16 17 17 17 17 16 17 17 18 18 18 18 17 17 16 15 15 15 15 15 15 16 16 15 15
9 9 9 10 10 11 11 12 12 12 13 14 14 14 13 14 15 15 16 16 17 17 16 16 16 16 17 16 17 17 16 15 14 14 13 13 13 14 14 14 14 13 13 13
7 8 8 9 9 10 11 12 12 13 13 14 14 14 14 14 15 15 16 16 16 16 16 15 15 15 15 15 16 16 15 15 14 13 13 13 13 13 13 12 12 11 11 11
7 8 8 8 9 10 11 11 11 12 13 14 14 15 15 15 16 16 16 15 15 15 14 14 13 13 14 14 15 14 13 13 12 12 12 12 11 11 11 11 11 10 9 8
7 8 8 8 8 9 10 10 11 12 13 14 14 15 15 15 15 15 15 14 13 13 12 12 12 13 13 13 12 11 10 11 11 11 10 10 9 9 9 9 9 8 7 6
6 7 7 8 8 9 10 10 11 12 13 13 14 14 14 14 14 15 15 13 13 12 12 11 11 11 11 11 9 9 10 10 9 9 9 8 8 7 7 7 7 7 7 6
6 7 8 9 9 9 10 10 11 12 13 13 13 13 13 13 14 14 14 12 11 11 10 9 9 8 8 8 8 9 9 8 8 8 7 7 7 7 7 7 7 7 7 7
7 8 8 9 9 9 10 11 11 12 13 13 13 13 13 13 13 13 12 10 9 8 8 7 6 6 6 7 7 7 7 7 7 7 7 7 7 7 7 7 8 8 8 8
6 7 8 8 9 9 10 11 11 12 12 13 13 13 12 12 11 11 9 8 7 7 6 5 6 6 6 7 7 6 6 6 6 6 6 7 7 7 8 8 8 9 9 9
6 7 7 8 8 9 10 11 11 11 12 12 12 12 12 11 10 9 9 8 7 7 6 6 6 6 6 6 6 6 6 6 7 7 7 8 8 8 8 9 10 11 11 11
6 6 6 7 8 9 10 10 10 10 11 12 11 11 10 9 9 9 8 8 7 7 6 5 5 6 6 6 6 7 6 7 7 8 8 9 9 10 10 10 11 11 12 13
6 6 6 6 8 9 9 10 10 10 10 11 11 11 10 9 9 8 8 7 7 7 6 5 6 6 6 6 7 7 7 8 8 9 9 10 11 11 12 12 12 13 14 14
7 6 6 6 7 8 9 9 9 10 10 11 11 10 10 9 9 8 7 7 7 7 7 6 6 6 7 7 8 8 9 9 9 10 11 12 12 12 13 13 14 14 14 14
6 6 6 6 7 7 8 9 9 9 9 10 10 10 10 9 9 8 7 7 7 6 7 7 7 7 8 8 9 10 10 10 11 11 12 12 12 12 13 13 14 14 15 15
6 5 6 6 6 6 7 8 8 9 9 9 9 10 9 8 8 7 7 7 7 6 6 7 7 8 9 9 10 10 11 11 11 12 12 12 12 12 13 13 14 14 15 15
5 5 5 6 6 6 6 7 7 8 8 8 8 9 9 8 7 6 6 6 7 7 7 7 7 8 9 9 10 11 11 12 12 12 12 12 12 12 13 13 13 14 14 14
5 5 5 5 6 6 6 6 7 7 7 7 7 7 7 7 6 5 6 6 6 6 6 6 7 7 8 8 9 10 10 10 11 11 11 11 11 11 11 12 12 12 12 13
6 6 6 6 6 6 6 6 6 6 6 6 6 6 6 5 5 5 4 4 5 4 4 5 6 6 7 7 7 8 8 9 9 9 9 10 10 10 10 10 11 11 11 11
6 6 6 6 7 6 6 6 6 6 5 5 5 5 5 5 4 4 3 3 3 3 3 4 4 5 5 6 6 6 7 7 7 7 8 8 8 8 8 9 9 9 9 9
7 7 7 7 7 7 6 6 6 6 5 4 4 4 4 3 3 3 2 2 2 2 2 3 4 4 4 4 4 4 4 4 5 5 5 5 5 5 6 7 7 7 7 7
8 7 7 7 7 7 7 7 7 6 5 4 4 4 3 3 2 2 2 1 1 0 1 1 2 2 3 3 3 3 2 3 3 3 3 3 3 3 4 4 4 4 4 3
9 9 9 8 8 8 8 8 7 7 6 6 5 5 4 4 3 3 2 2 2 2 1 2 2 2 2 3 3 3 3 2 2 2 2 2 2 3 3 2 2 1 0 0
9 10 10 10 10 9 9 9 8 8 8 7 7 6 6 5 5 5 5 4 4 4 4 4 4 4 4 5 5 5 5 4 4 4 4 4 4 4 4 4 3 3 4 4
11 11 11 11 11 11 11 10 10 9 9 9 8 8 8 7 7 7 7 7 7 7 6 6 7 7 7 8 8 8 8 8 7 7 7 7 7 7 7 7 7 7 7 8
13 13 13 13 13 12 12 12 12 12 11 11 10 10 10 10 10 10 9 9 9 9 9 9 9 9 9 10 10 11 11 11 11 10 10 10 10 10 11 11 11 11 11 11
14 15 15 15 14 14 14 14 14 14 13 13 13 13 12 12 12 12 12 12 12 12 11 11 11 12 12 12 12 13 13 14 14 14 14 14 14 14 14 14 14 14 15 15
Wind_Direction
277 281 282 282 280 280 281 282 283 287 289 292 296 299 298 298 296 295 295 299 300 299 298 296 296 299 301 303 304 304 304 303 302 302 302 303 302 302 300 299 299 298 296 293
284 286 286 283 283 285 286 285 285 287 289 293 297 299 301 300 299 299 298 301 302 299 298 297 298 300 303 304 306 307 307 307 306 305 305 308 308 306 305 304 305 303 300 299
293 295 296 288 287 287 287 287 290 288 289 292 296 300 304 305 304 303 305 303 302 300 298 300 301 300 302 306 310 311 312 314 313 311 309 311 313 312 311 309 309 307 304 305
297 300 302 302 295 294 295 296 294 295 293 296 300 301 303 305 306 307 307 304 303 302 301 300 301 302 304 306 311 314 315 318 317 315 314 314 316 316 314 315 316 316 315 313
301 305 310 309 303 303 304 302 299 298 298 298 300 302 304 306 306 308 307 307 307 304 302 300 302 304 305 308 314 316 318 321 323 322 321 320 320 320 321 322 320 319 320 321
303 307 312 315 310 310 308 307 307 307 306 305 305 306 307 307 306 308 309 309 306 303 304 304 307 309 310 314 317 318 324 329 332 332 331 332 332 331 332 333 334 335 336 337
309 313 319 320 320 316 316 317 318 316 315 313 313 314 312 311 311 314 315 313 311 311 311 311 312 313 314 319 323 328 334 336 338 340 342 344 345 350 353 356 1 6 9 14
318 319 322 321 321 322 321 321 322 322 321 320 320 321 319 319 319 320 320 319 318 317 317 318 320 322 325 327 331 338 342 346 351 353 355 359 6 13 17 20 23 29 31 34
317 318 322 323 323 322 325 325 325 326 327 328 327 327 326 325 326 329 328 330 330 324 324 328 332 335 337 342 344 347 355 1 5 9 15 21 28 30 32 36 41 44 44 45
314 318 322 323 325 325 330 331 331 333 334 334 332 330 330 331 333 337 343 346 348 347 345 350 352 349 347 350 355 2 10 14 16 22 30 36 42 45 50 54 54 53 54 59
314 317 322 326 327 329 331 334 334 336 339 339 337 338 338 340 345 350 353 354 353 354 358 0 2 3 3 7 16 23 27 31 34 40 47 52 54 59 65 67 68 68 70 73
311 314 320 326 329 332 334 337 339 343 345 345 344 345 348 350 354 359 5 8 12 13 17 19 22 24 28 36 41 40 43 51 55 58 61 62 69 75 77 76 75 77 76 79
305 310 317 323 329 335 341 342 344 348 349 350 353 355 355 357 1 7 14 22 26 28 34 41 40 41 46 49 51 53 59 64 66 68 71 76 79 79 80 82 83 83 82 82
304 306 311 319 327 335 342 346 348 350 352 355 359 2 4 7 11 17 23 29 33 40 45 50 54 57 58 62 66 69 70 73 77 81 84 85 84 83 83 85 86 85 86 87
301 307 313 318 323 333 341 347 350 352 355 0 4 6 8 12 19 25 30 33 37 44 52 57 62 65 67 71 76 78 79 84 89 91 90 89 89 88 87 88 87 88 89 90
299 306 314 318 320 326 337 346 349 353 359 4 7 8 10 15 21 28 34 38 42 49 59 67 71 73 76 80 82 85 88 91 92 92 91 91 91 91 91 91 89 89 88 88
297 303 307 310 316 325 332 339 348 353 358 3 5 7 11 18 28 36 41 45 50 58 67 74 77 80 82 83 87 92 92 93 94 94 93 92 91 92 92 92 91 91 90 88
294 300 305 308 313 318 325 335 345 351 356 1 5 9 13 20 30 38 43 48 54 62 68 74 82 86 88 91 94 96 97 99 98 96 94 93 92 92 91 90 90 91 91 89
286 292 297 300 304 311 318 330 340 346 352 358 2 5 10 17 25 35 41 48 58 64 71 80 88 93 94 95 99 100 101 100 97 95 94 94 96 96 95 94 94 94 92 90
278 282 290 296 296 300 305 316 327 334 340 346 356 3 8 12 17 22 31 48 59 61 70 89 102 107 106 104 103 102 102 101 99 100 100 100 100 101 100 100 99 97 93 89
273 278 285 290 292 294 299 307 314 320 322 325 336 348 355 1 6 11 22 40 56 62 77 100 114 121 119 117 114 111 111 110 110 113 112 109 107 107 107 107 104 100 95 89
269 273 278 285 289 289 292 298 303 304 305 304 309 320 328 330 331 332 340 340 335 0 122 138 143 145 143 141 139 137 136 136 135 135 133 128 124 123 122 120 114 107 97 86
266 270 273 279 283 285 286 289 293 295 295 293 293 298 302 303 301 295 292 296 289 278 257 229 212 202 198 196 195 194 194 195 191 190 188 183 177 175 173 171 169 171 194 314
266 268 270 274 276 279 280 281 283 284 283 283 284 286 286 287 287 285 280 277 276 272 265 258 249 242 239 236 234 229 225 226 228 227 224 222 221 222 225 232 242 256 270 282
266 268 271 273 273 274 275 274 276 276 276 276 278 279 279 279 279 280 278 275 273 270 266 264 260 255 250 247 246 244 243 241 239 240 241 242 244 247 249 253 260 266 272 278
268 269 271 273 273 273 273 272 272 272 273 273 275 276 275 274 275 275 275 273 271 270 268 267 264 262 258 255 253 251 249 248 248 249 250 251 253 256 259 263 267 270 273 277
270 271 271 272 272 271 271 270 270 270 270 271 272 274 275 275 274 273 272 272 271 270 269 267 265 263 261 260 259 257 255 253 253 254 256 258 259 261 262 265 268 271 274 277
Height
5803 5803 5802 5802 5802 5801 5801 5800 5800 5800 5799 5798 5797 5796 5794 5793 5791 5789 5787 5784 5782 5780 5778 5775 5773 5771 5768 5766 5763 5760 5757 5754 5751 5748 5746 5744 5742 5740 5738 5736 5734 5732 5731 5729
5801 5801 5800 5800 5799 5799 5798 5797 5796 5796 5795 5794 5793 5792 5790 5789 5787 5785 5782 5780 5777 5775 5773 5771 5769 5766 5764 5761 5758 5755 5753 5749 5747 5744 5742 5740 5738 5736 5734 5732 5730 5728 5726 5725
5799 5798 5798 5797 5797 5796 5795 5794 5794 5792 5792 5791 5789 5788 5786 5784 5782 5780 5778 5775 5773 5770 5768 5766 5764 5762 5760 5757 5754 5752 5749 5746 5743 5741 5739 5737 5735 5733 5731 5729 5727 5725 5723 5722
5797 5798 5796 5797 5794 5793 5792 5791 5790 5789 5788 5787 5785 5784 5782 5780 5778 5776 5773 5771 5768 5766 5764 5762 5759 5757 5755 5753 5751 5748 5745 5743 5740 5738 5736 5734 5732 5730 5728 5726 5724 5723 5721 5719
5796 5795 5794 5794 5792 5790 5789 5788 5787 5786 5784 5783 5782 5780 5778 5776 5774 5771 5769 5766 5764 5761 5759 5757 5755 5753 5751 5749 5747 5745 5742 5740 5738 5736 5734 5732 5730 5728 5726 5724 5722 5721 5719 5717
5794 5793 5793 5793 5790 5788 5788 5786 5785 5783 5781 5780 5778 5777 5775 5772 5770 5767 5764 5762 5760 5757 5755 5753 5752 5750 5748 5746 5744 5742 5739 5738 5735 5733 5732 5730 5728 5726 5725 5723 5721 5720 5718 5716
5793 5792 5791 5790 5788 5788 5787 5786 5783 5780 5779 5777 5775 5774 5771 5768 5766 5763 5761 5758 5756 5754 5752 5750 5749 5747 5745 5744 5742 5740 5738 5736 5734 5732 5730 5729 5727 5726 5724 5723 5721 5719 5718 5716
5792 5791 5792 5789 5787 5786 5785 5782 5780 5778 5777 5775 5772 5770 5767 5765 5762 5760 5757 5755 5753 5751 5749 5748 5746 5745 5743 5742 5740 5738 5737 5735 5733 5731 5730 5728 5727 5726 5724 5723 5722 5720 5719 5718
5791 5792 5789 5787 5786 5784 5783 5781 5779 5777 5774 5772 5770 5768 5765 5763 5760 5758 5755 5753 5751 5749 5748 5746 5745 5744 5742 5741 5739 5737 5736 5734 5733 5732 5730 5729 5728 5727 5725 5724 5723 5722 5721 5719
5789 5788 5787 5786 5784 5783 5781 5780 5777 5775 5773 5771 5768 5766 5764 5761 5759 5756 5754 5752 5750 5748 5747 5745 5744 5743 5742 5740 5739 5737 5736 5735 5734 5732 5731 5730 5729 5728 5727 5726 5725 5724 5723 5722
5788 5787 5786 5785 5783 5782 5780 5778 5776 5774 5772 5769 5767 5765 5762 5760 5758 5755 5753 5751 5749 5748 5746 5745 5744 5743 5742 5740 5739 5738 5737 5736 5734 5733 5732 5732 5731 5730 5729 5728 5728 5727 5726 5725
5787 5786 5785 5784 5783 5781 5780 5778 5776 5774 5771 5769 5766 5764 5762 5760 5757 5755 5753 5751 5750 5748 5747 5745 5744 5743 5742 5741 5740 5739 5738 5737 5736 5735 5734 5734 5733 5732 5732 5731 5731 5730 5729 5729
5785 5785 5784 5783 5782 5780 5779 5777 5775 5773 5771 5768 5766 5764 5761 5759 5757 5755 5754 5752 5751 5749 5748 5747 5746 5745 5744 5743 5742 5741 5740 5739 5738 5738 5737 5737 5736 5736 5735 5735 5734 5734 5733 5733
5784 5783 5783 5782 5781 5780 5778 5776 5775 5772 5770 5768 5766 5764 5762 5760 5758 5756 5754 5753 5752 5751 5749 5748 5747 5746 5746 5745 5744 5743 5742 5742 5741 5741 5740 5740 5740 5740 5739 5739 5738 5738 5738 5737
5782 5782 5782 5781 5780 5779 5778 5776 5774 5772 5770 5768 5766 5764 5762 5760 5759 5757 5756 5754 5753 5752 5751 5750 5750 5749 5748 5747 5746 5746 5745 5745 5745 5744 5744 5744 5744 5744 5743 5743 5743 5743 5742 5742
5781 5781 5781 5780 5779 5778 5777 5776 5774 5772 5770 5769 5767 5765 5763 5761 5760 5758 5757 5756 5755 5754 5753 5753 5752 5751 5750 5750 5750 5749 5749 5749 5748 5748 5748 5748 5748 5748 5748 5748 5747 5747 5747 5747
5781 5780 5780 5779 5779 5778 5777 5776 5774 5772 5771 5769 5768 5766 5764 5762 5761 5760 5759 5758 5757 5756 5756 5755 5754 5754 5753 5753 5753 5753 5752 5752 5752 5752 5752 5752 5752 5752 5752 5752 5752 5752 5752 5752
5780 5779 5779 5778 5778 5777 5776 5775 5774 5772 5771 5769 5768 5767 5765 5764 5762 5762 5761 5760 5759 5758 5758 5757 5757 5756 5756 5756 5756 5756 5756 5756 5756 5756 5756 5756 5756 5756 5756 5756 5756 5756 5756 5756
5778 5778 5778 5778 5777 5776 5775 5774 5773 5772 5771 5769 5768 5767 5766 5765 5764 5763 5762 5761 5761 5760 5760 5759 5759 5759 5759 5759 5759 5759 5759 5759 5759 5759 5759 5759 5759 5759 5760 5759 5759 5760 5760 5760
5777 5777 5777 5776 5776 5775 5774 5774 5773 5772 5771 5770 5769 5768 5767 5766 5765 5764 5763 5763 5762 5762 5761 5761 5761 5761 5761 5761 5761 5762 5762 5762 5762 5762 5762 5763 5763 5763 5763 5763 5763 5763 5763 5763
5775 5775 5775 5775 5774 5774 5773 5773 5772 5771 5770 5770 5769 5768 5767 5766 5765 5765 5764 5764 5764 5763 5763 5762 5763 5763 5763 5763 5764 5764 5764 5764 5765 5765 5765 5765 5765 5765 5765 5765 5765 5765 5765 5765
5773 5774 5774 5773 5773 5773 5772 5772 5771 5770 5769 5769 5768 5768 5767 5767 5766 5765 5765 5765 5764 5764 5764 5764 5764 5764 5765 5765 5765 5765 5766 5766 5766 5766 5766 5767 5767 5767 5767 5767 5767 5767 5767 5767
5771 5771 5772 5772 5771 5771 5771 5770 5770 5769 5769 5768 5768 5767 5767 5766 5766 5765 5765 5765 5764 5764 5764 5764 5765 5765 5765 5765 5766 5766 5766 5767 5767 5767 5767 5767 5768 5768 5768 5768 5768 5768 5768 5768
5768 5769 5769 5769 5769 5769 5769 5768 5768 5768 5767 5767 5767 5766 5766 5766 5765 5765 5765 5765 5764 5764 5764 5764 5765 5765 5765 5765 5766 5766 5766 5766 5767 5767 5767 5767 5768 5768 5768 5768 5768 5768 5768 5768
5765 5766 5766 5766 5766 5766 5766 5766 5766 5766 5765 5765 5765 5765 5764 5764 5764 5764 5764 5763 5763 5763 5763 5763 5763 5763 5764 5764 5764 5765 5765 5765 5766 5766 5766 5766 5767 5767 5767 5767 5767 5767 5767 5766
5762 5762 5763 5763 5763 5763 5763 5763 5763 5763 5763 5763 5763 5762 5762 5762 5762 5762 5762 5761 5761 5761 5761 5761 5761 5761 5762 5762 5762 5762 5763 5763 5763 5764 5764 5764 5764 5765 5765 5765 5765 5764 5764 5763
5758 5758 5759 5759 5759 5759 5759 5759 5759 5759 5760 5760 5759 5759 5759 5759 5759 5759 5759 5758 5758 5759 5759 5758 5758 5759 5759 5759 5759 5759 5760 5760 5760 5760 5761 5761 5761 5761 5761 5761 5761 5761 5760 5760